Radiation Dose at Monitoring Post of Fukushima Daini Nuclear Power Station
Date,Time,MP-1(microSv/h),MP-2(microSv/h),MP-3(microSv/h),MP-4(microSv/h),MP-5(microSv/h),MP-6(microSv/h),MP-7(microSv/h),Wind Direction,Wind Velocity(m/s),Rain
2019/08/17,00:00,0.192,0.171,0.300,0.277,0.272,0.149,0.091,south-southwest,3.6,No
2019/08/17,00:10,0.194,0.172,0.297,0.282,0.272,0.150,0.091,south-southwest,3.8,No
2019/08/17,00:20,0.195,0.173,0.295,0.282,0.270,0.148,0.092,south-southwest,2.7,No
2019/08/17,00:30,0.193,0.172,0.300,0.280,0.269,0.148,0.092,south-southwest,2.7,No
2019/08/17,00:40,0.193,0.172,0.299,0.277,0.272,0.150,0.091,south-southwest,2.5,No
2019/08/17,00:50,0.194,0.174,0.297,0.282,0.273,0.150,0.092,south,2.5,No
2019/08/17,01:00,0.194,0.174,0.297,0.280,0.270,0.148,0.092,south,3.3,No
2019/08/17,01:10,0.192,0.172,0.300,0.278,0.269,0.150,0.090,south-southwest,3.7,No
2019/08/17,01:20,0.195,0.175,0.298,0.279,0.274,0.149,0.092,south-southwest,3.0,No
2019/08/17,01:30,0.194,0.174,0.295,0.282,0.272,0.148,0.092,south-southwest,2.8,No
2019/08/17,01:40,0.193,0.172,0.299,0.281,0.270,0.150,0.092,south-southwest,3.5,No
2019/08/17,01:50,0.194,0.173,0.300,0.277,0.269,0.149,0.093,south-southwest,3.0,No
2019/08/17,02:00,0.196,0.174,0.299,0.279,0.274,0.149,0.092,south-southwest,2.7,No
2019/08/17,02:10,0.194,0.172,0.295,0.281,0.273,0.149,0.092,west-southwest,2.2,No
2019/08/17,02:20,0.192,0.173,0.300,0.280,0.270,0.150,0.092,west-southwest,1.7,No
2019/08/17,02:30,0.195,0.174,0.299,0.279,0.270,0.149,0.093,west,2.2,No
2019/08/17,02:40,0.194,0.172,0.296,0.282,0.272,0.149,0.092,west,2.4,No
2019/08/17,02:50,0.193,0.172,0.298,0.281,0.271,0.150,0.091,west,4.1,No
2019/08/17,03:00,0.194,0.174,0.300,0.279,0.268,0.148,0.091,west,3.7,No
2019/08/17,03:10,0.196,0.173,0.297,0.277,0.271,0.148,0.093,west,4.1,No
2019/08/17,03:20,0.193,0.172,0.294,0.281,0.274,0.149,0.091,west,4.2,No
2019/08/17,03:30,0.192,0.174,0.299,0.280,0.271,0.149,0.093,south,2.1,No
2019/08/17,03:40,0.195,0.173,0.299,0.278,0.269,0.148,0.092,south,2.0,No
2019/08/17,03:50,0.193,0.171,0.295,0.279,0.271,0.150,0.091,south,2.5,No
2019/08/17,04:00,0.193,0.174,0.296,0.282,0.273,0.150,0.093,south-southwest,4.4,No
2019/08/17,04:10,0.193,0.174,0.300,0.279,0.270,0.148,0.092,south-southwest,2.4,No
2019/08/17,04:20,0.196,0.172,0.299,0.278,0.268,0.149,0.091,south-southwest,2.7,No
2019/08/17,04:30,0.194,0.173,0.296,0.279,0.273,0.150,0.092,south-southwest,2.9,No
2019/08/17,04:40,0.193,0.173,0.297,0.280,0.273,0.148,0.092,southwest,2.7,No
2019/08/17,04:50,0.195,0.172,0.298,0.279,0.271,0.149,0.091,south-southwest,3.0,No
2019/08/17,05:00,0.194,0.172,0.298,0.277,0.270,0.150,0.092,south,3.3,No
2019/08/17,05:10,0.193,0.174,0.296,0.279,0.275,0.149,0.092,south,3.4,No
2019/08/17,05:20,0.194,0.173,0.299,0.281,0.271,0.147,0.092,south-southwest,3.0,No
2019/08/17,05:30,0.195,0.171,0.299,0.278,0.269,0.149,0.091,south-southwest,2.7,No
2019/08/17,05:40,0.194,0.174,0.296,0.277,0.270,0.149,0.092,south-southwest,2.1,No
2019/08/17,05:50,0.193,0.173,0.296,0.282,0.272,0.148,0.092,west-southwest,2.8,No
2019/08/17,06:00,0.196,0.172,0.300,0.280,0.270,0.148,0.091,west-southwest,3.0,No
2019/08/17,06:10,0.195,0.172,0.298,0.278,0.268,0.149,0.090,west-southwest,2.8,No
2019/08/17,06:20,0.193,0.174,0.297,0.278,0.268,0.149,0.091,west-southwest,3.0,No
2019/08/17,06:30,0.193,0.172,0.295,0.281,0.273,0.147,0.090,west-southwest,2.8,No
2019/08/17,06:40,0.195,0.171,0.299,0.281,0.272,0.148,0.091,southwest,1.8,No
2019/08/17,06:50,0.195,0.173,0.297,0.279,0.271,0.150,0.091,west-southwest,1.8,No
2019/08/17,07:00,0.193,0.174,0.296,0.277,0.270,0.149,0.091,southwest,2.4,No
2019/08/17,07:10,0.192,0.172,0.296,0.278,0.269,0.148,0.091,south,2.9,No
2019/08/17,07:20,0.195,0.173,0.294,0.277,0.268,0.149,0.092,southwest,2.8,No
2019/08/17,07:30,0.195,0.172,0.294,0.278,0.268,0.150,0.092,south,2.2,No
2019/08/17,07:40,0.195,0.171,0.295,0.277,0.269,0.148,0.091,southwest,1.6,No
2019/08/17,07:50,0.192,0.171,0.295,0.279,0.268,0.148,0.092,southwest,2.6,No
2019/08/17,08:00,0.191,0.172,0.295,0.280,0.270,0.148,0.091,south,2.8,No
2019/08/17,08:10,0.193,0.172,0.295,0.281,0.270,0.149,0.092,south,2.0,No
2019/08/17,08:20,0.194,0.172,0.295,0.280,0.270,0.148,0.092,south,1.6,No
2019/08/17,08:30,0.194,0.172,0.297,0.281,0.271,0.148,0.092,south-southeast,2.5,No
2019/08/17,08:40,0.194,0.172,0.296,0.282,0.271,0.149,0.091,south-southeast,2.6,No
2019/08/17,08:50,0.194,0.173,0.297,0.281,0.273,0.148,0.092,south-southeast,2.9,No
2019/08/17,09:00,0.193,0.174,0.296,0.282,0.273,0.147,0.091,south-southeast,3.7,No
2019/08/17,09:10,0.194,0.174,0.298,0.282,0.274,0.149,0.092,south-southeast,3.3,No
2019/08/17,09:20,0.194,0.174,0.297,0.282,0.272,0.150,0.092,southeast,3.5,No
2019/08/17,09:30,0.195,0.175,0.298,0.283,0.273,0.150,0.092,southeast,3.5,No
2019/08/17,09:40,0.195,0.175,0.298,0.284,0.274,0.150,0.091,southeast,2.9,No
2019/08/17,09:50,0.195,0.175,0.298,0.283,0.274,0.150,0.091,southeast,2.6,No
2019/08/17,10:00,0.195,0.174,0.298,0.282,0.272,0.149,0.091,southeast,2.3,No
2019/08/17,10:10,0.195,0.175,0.298,0.282,0.270,0.149,0.092,east-southeast,2.3,No
2019/08/17,10:20,0.196,0.175,0.298,0.284,0.269,0.150,0.092,east-southeast,2.0,No
2019/08/17,10:30,0.196,0.174,0.299,0.281,0.269,0.150,0.091,southeast,1.8,No
2019/08/17,10:40,0.196,0.174,0.298,0.283,0.270,0.150,0.091,east-southeast,3.1,No
2019/08/17,10:50,0.195,0.173,0.298,0.283,0.270,0.149,0.091,east-southeast,2.2,No
2019/08/17,11:00,0.196,0.174,0.300,0.282,0.269,0.148,0.091,east-southeast,2.3,No
2019/08/17,11:10,0.195,0.174,0.299,0.282,0.270,0.148,0.091,east-southeast,2.5,No
2019/08/17,11:20,0.195,0.174,0.301,0.284,0.270,0.147,0.091,southeast,2.3,No
2019/08/17,11:30,0.195,0.174,0.302,0.283,0.269,0.146,0.092,south-southeast,1.6,No
2019/08/17,11:40,0.195,0.175,0.302,0.282,0.272,0.148,0.090,west-northwest,0.9,No
2019/08/17,11:50,0.197,0.175,0.302,0.283,0.271,0.147,0.091,southwest,1.0,No
2019/08/17,12:00,0.196,0.175,0.302,0.283,0.271,0.147,0.091,west-southwest,1.9,No
2019/08/17,12:10,0.196,0.174,0.301,0.282,0.271,0.148,0.091,west-southwest,2.2,No
2019/08/17,12:20,0.195,0.173,0.301,0.283,0.270,0.148,0.091,west,5.4,No
2019/08/17,12:30,0.197,0.174,0.301,0.282,0.271,0.148,0.092,west,5.3,No
2019/08/17,12:40,0.195,0.173,0.300,0.283,0.271,0.148,0.091,west,6.2,No
2019/08/17,12:50,0.195,0.174,0.302,0.284,0.271,0.148,0.091,west-northwest,5.5,No
2019/08/17,13:00,0.196,0.174,0.301,0.282,0.272,0.148,0.092,west,5.9,No
2019/08/17,13:10,0.195,0.174,0.301,0.284,0.271,0.149,0.091,west-northwest,8.2,No
2019/08/17,13:20,0.195,0.173,0.300,0.283,0.270,0.148,0.091,west-northwest,6.4,No
2019/08/17,13:30,0.195,0.175,0.301,0.284,0.270,0.148,0.092,west-northwest,6.1,No
2019/08/17,13:40,0.196,0.173,0.300,0.284,0.270,0.147,0.091,west,5.5,No
2019/08/17,13:50,0.198,0.173,0.302,0.284,0.270,0.149,0.091,west,4.3,No
2019/08/17,14:00,0.197,0.174,0.300,0.282,0.271,0.148,0.092,northwest,4.2,No
2019/08/17,14:10,0.196,0.174,0.300,0.279,0.270,0.148,0.091,west-northwest,4.8,No
2019/08/17,14:20,0.196,0.174,0.300,0.276,0.269,0.149,0.091,north-northwest,1.6,No
2019/08/17,14:30,0.197,0.174,0.301,0.274,0.270,0.149,0.092,southeast,1.1,No
2019/08/17,14:40,0.196,0.174,0.300,0.275,0.271,0.147,0.092,northeast,0.7,No
2019/08/17,14:50,0.196,0.173,0.300,0.277,0.270,0.148,0.091,east-northeast,2.5,No
2019/08/17,15:00,0.196,0.173,0.299,0.277,0.271,0.148,0.091,east-northeast,3.3,No
2019/08/17,15:10,0.194,0.174,0.298,0.277,0.271,0.148,0.092,east-northeast,3.0,No
2019/08/17,15:20,0.194,0.174,0.297,0.277,0.270,0.148,0.092,east-northeast,3.1,No
2019/08/17,15:30,0.194,0.173,0.298,0.278,0.270,0.148,0.091,east-northeast,3.1,No
2019/08/17,15:40,0.194,0.173,0.298,0.278,0.272,0.148,0.091,east-northeast,2.1,No
2019/08/17,15:50,0.193,0.172,0.297,0.278,0.270,0.148,0.090,east-northeast,2.0,No
2019/08/17,16:00,0.193,0.171,0.296,0.277,0.271,0.149,0.091,east-northeast,1.4,No
2019/08/17,16:10,0.192,0.173,0.297,0.276,0.271,0.149,0.090,north,0.7,No
2019/08/17,16:20,0.194,0.173,0.296,0.276,0.271,0.148,0.091,north,0.8,No
2019/08/17,16:30,0.194,0.172,0.297,0.281,0.272,0.148,0.093,north,1.2,No
2019/08/17,16:40,0.193,0.173,0.297,0.281,0.270,0.147,0.092,north-northwest,1.2,No
2019/08/17,16:50,0.193,0.171,0.296,0.278,0.270,0.148,0.091,northwest,1.7,No
2019/08/17,17:00,0.194,0.172,0.296,0.280,0.269,0.148,0.091,north-northwest,1.7,No
2019/08/17,17:10,0.193,0.174,0.297,0.284,0.268,0.148,0.090,north-northwest,1.6,No
2019/08/17,17:20,0.196,0.173,0.298,0.283,0.267,0.150,0.092,northwest,1.6,No
2019/08/17,17:30,0.197,0.173,0.301,0.281,0.271,0.150,0.092,north,2.1,No
2019/08/17,17:40,0.194,0.173,0.302,0.280,0.275,0.150,0.091,north-northeast,1.8,No
2019/08/17,17:50,0.194,0.172,0.299,0.280,0.272,0.149,0.091,northeast,1.5,No
2019/08/17,18:00,0.193,0.174,0.298,0.284,0.273,0.150,0.090,north-northeast,0.8,No
2019/08/17,18:10,0.196,0.174,0.297,0.283,0.270,0.148,0.092,northeast,1.0,No
2019/08/17,18:20,0.197,0.172,0.301,0.281,0.269,0.149,0.092,northeast,0.6,No
2019/08/17,18:30,0.195,0.173,0.302,0.280,0.270,0.151,0.091,-,CALM,No
2019/08/17,18:40,0.193,0.174,0.299,0.280,0.270,0.150,0.090,north,1.1,No
2019/08/17,18:50,0.193,0.175,0.299,0.281,0.273,0.149,0.090,north-northwest,2.0,No
2019/08/17,19:00,0.197,0.174,0.297,0.284,0.273,0.150,0.091,north,1.3,No
2019/08/17,19:10,0.197,0.173,0.301,0.282,0.271,0.150,0.092,northwest,1.3,No
2019/08/17,19:20,0.195,0.174,0.302,0.280,0.271,0.150,0.092,west-northwest,1.7,No
2019/08/17,19:30,0.194,0.174,0.301,0.279,0.271,0.150,0.092,west,2.0,No
2019/08/17,19:40,0.193,0.174,0.299,0.282,0.272,0.149,0.091,west,1.7,No
2019/08/17,19:50,0.197,0.174,0.298,0.284,0.275,0.150,0.093,west-northwest,1.5,No
2019/08/17,20:00,0.197,0.173,0.302,0.281,0.273,0.149,0.092,west-northwest,1.0,No
2019/08/17,20:10,0.195,0.174,0.301,0.279,0.272,0.150,0.092,west-northwest,1.6,No
2019/08/17,20:20,0.194,0.175,0.299,0.278,0.270,0.149,0.091,west-northwest,2.3,No
2019/08/17,20:30,0.195,0.174,0.298,0.283,0.270,0.149,0.092,northwest,2.7,No
2019/08/17,20:40,0.197,0.172,0.299,0.284,0.272,0.149,0.093,west,1.8,No
2019/08/17,20:50,0.196,0.173,0.304,0.282,0.275,0.150,0.092,west-northwest,1.7,No
2019/08/17,21:00,0.194,0.174,0.302,0.281,0.273,0.150,0.092,west-northwest,1.5,No
2019/08/17,21:10,0.193,0.175,0.300,0.279,0.271,0.149,0.092,north-northwest,1.4,No
2019/08/17,21:20,0.196,0.173,0.298,0.284,0.270,0.150,0.091,north-northwest,2.1,No
2019/08/17,21:30,0.196,0.173,0.297,0.285,0.269,0.149,0.093,northwest,1.2,No
2019/08/17,21:40,0.196,0.175,0.303,0.280,0.275,0.151,0.091,west-northwest,1.6,No
2019/08/17,21:50,0.194,0.175,0.302,0.280,0.274,0.150,0.092,northwest,1.5,No
2019/08/17,22:00,0.193,0.174,0.299,0.280,0.273,0.150,0.093,northwest,1.9,No
2019/08/17,22:10,0.198,0.174,0.298,0.284,0.271,0.150,0.091,north,1.9,Yes
2019/08/17,22:20,0.196,0.175,0.299,0.284,0.269,0.151,0.092,north-northwest,0.8,No
2019/08/17,22:30,0.196,0.175,0.304,0.282,0.273,0.151,0.092,northwest,1.3,No
2019/08/17,22:40,0.194,0.174,0.302,0.281,0.276,0.150,0.093,north-northwest,1.2,No
2019/08/17,22:50,0.196,0.173,0.301,0.280,0.273,0.150,0.093,northwest,1.7,Yes
2019/08/17,23:00,0.199,0.176,0.299,0.286,0.273,0.151,0.092,northwest,2.2,Yes
2019/08/17,23:10,0.197,0.175,0.302,0.283,0.270,0.151,0.092,north-northwest,0.9,No
2019/08/17,23:20,0.195,0.175,0.304,0.282,0.271,0.150,0.093,northwest,1.3,No
2019/08/17,23:30,0.195,0.173,0.302,0.281,0.275,0.151,0.093,west,0.7,No
2019/08/17,23:40,0.199,0.175,0.301,0.281,0.275,0.151,0.093,-,CALM,No
2019/08/17,23:50,0.198,0.175,0.299,0.286,0.273,0.151,0.092,west-southwest,0.9,No
